sat.trackr.live / text

‹ back to catalog

ONEWEB-0721

NORAD 56725 · 2023-068R

PAYLOAD ACTIVE UNKNOWN

§ Identity

Operator
Country
UK
Launch date
2023-05-20
Launch site
AFWTR
Launch vehicle
Mass (kg)
RCS (m²)

Purposes: comms

External: N2YO · Heavens-Above · Gunter

§ Orbital elements

Epoch: 2026-05-24T21:54:01.384992Z

Period
108.89 min
Inclination
86.6757°
Eccentricity
0.0001978
Mean motion
13.22467537 rev/d
Perigee alt
1,173.8 km
Apogee alt
1,176.8 km
Semi-major
7,553.4 km
B*
9.4237e-5
RAAN
92.9440°
Arg perigee
80.8494°
Mean anomaly
279.2863°
Rev number
15,486

§ Raw data

ONEWEB-07211 56725U 23068R   26144.91251603  .00000054  00000+0  94237-4 0  99952 56725  86.6757  92.9440 0001978  80.8494 279.2863 13.22467537154863

JSON: /api/v1/satellites/56725 · /tle

For live sub-satellite position, see the globe view (requires WebGL).

§ Visibility from observer

Set your observer location to see the next 7 days of passes ≥ 10°. The values pass through the URL so the page stays shareable.

No JS? Fill the form by hand. The geolocation button needs JavaScript.